Location: Rio Negrinho
(26.2394°S, 49.4999°W)
Time: 02:37:48
(UTC+00:00)

SEDSat Delta rocket - Pass Details

Date: 03 October 2020
Orbit: 533 x 1000 km, 31.4° (Epoch: 20 October)

Event Time Altitude Azimuth Distance (km) Brightness Sun altitude
Rises 00:20:50 0° 270° (W) 3,217 7.4 -39.7°
Reaches altitude 10° 00:23:32 10° 264° (W) 2,210 6.4 -40.2°
Enters shadow 00:24:15 14° 262° (W) 1,952 6.1 -40.3°
